JCSAT-2B

Last updated on Sun Oct 06 2024 00:02:40 GMT+0000 (Coordinated Universal Time)

1 41471U 16028A 24279.46229713 -.00000155 00000+0 00000+0 0 9992 2 41471 0.0176 172.4776 0000970 19.0377 143.5452 1.00270386 30903
UTC large
Height (km)
Speed (km/s)
/
Latitude / Longitude
Inclination (degrees)
Orbital Period (minutes)
Azimuth
Elevation
Range (km)
Doppler Factor

Next 0 passes for location: London (51.5072 / 0.1276)

Sorry there are no passes over London.